Location: Barrio de Canyet
(41.4665°N, 2.2381°E)
Time: 03:34:26
(UTC+00:00)

MOS 1 - Pass Details

Date: 09 April 2020
Orbit: 879 x 891 km, 99.2° (Epoch: 31 May)

Event Time Altitude Azimuth Distance (km) Brightness Sun altitude
Rises 19:10:10 0° 154° (SSE) 3,465 7.0 -8.9°
Reaches altitude 10° 19:12:34 10° 152° (SSE) 2,532 6.2 -9.3°
Maximum altitude 19:18:07 64° 72° (ENE) 976 4.3 -10.3°
Drops below altitude 10° 19:23:44 10° 352° (N) 2,555 7.1 -11.3°
Sets 19:26:09 0° 350° (N) 3,500 7.9 -11.7°
